DateTimeUTC,F1_A11,F1_S11,BsB_S11,BsG_S11,BsR_S11,BbsB_S11,BbsG_S11,BbsR_S11,BaB_A11,BaG_A11,BaR_A11,Tu_S11,T_S11,Uu_S11,U_S11,P_S11,T1_A11
2021-08-05T07:00:00Z,00000200,20000000,,,,,,,0000.02,-000.10,-000.27,17.4,24.4,04.0,02.6,0669.8,30.9
2021-08-05T07:01:00Z,00000200,20000000,,,,,,,-000.07,-000.03,0000.18,17.4,24.4,04.3,02.8,0669.8,30.9
2021-08-05T07:02:00Z,00000200,20000000,,,,,,,-000.36,-000.16,-000.24,17.4,24.4,04.3,02.8,0669.8,30.9
2021-08-05T07:03:00Z,00000200,60000000,,,,,,,0002.24,0002.09,0001.77,17.4,24.4,04.3,02.8,0669.8,30.9
2021-08-05T07:04:00Z,00000200,40000000,0005.70,0003.83,0002.43,0000.78,0000.34,0000.39,0001.06,0001.03,0000.47,17.6,24.3,04.5,03.0,0670.7,30.9
2021-08-05T07:05:00Z,00000200,00000000,0005.43,0004.28,0002.31,0000.68,0000.34,0000.09,0001.16,0000.94,0000.99,17.7,24.2,04.6,03.1,0670.8,30.9
2021-08-05T07:06:00Z,00000200,00000000,0006.29,0004.24,0002.28,0000.89,0000.35,0000.12,0001.87,0002.07,0001.95,17.7,24.2,04.6,03.1,0670.8,30.9
2021-08-05T07:07:00Z,00000200,00000000,0005.67,0004.31,0002.61,0000.44,0000.52,0000.12,0001.40,0000.71,0000.22,17.7,24.2,04.7,03.2,0670.8,30.9
2021-08-05T07:08:00Z,00000200,00000000,0004.80,0004.36,0002.48,0000.88,0000.62,0000.36,0001.04,0001.17,0000.86,17.6,24.2,04.7,03.1,0670.8,30.9
2021-08-05T07:09:00Z,00000200,00000000,0005.44,0003.83,0002.57,0000.35,0000.53,0000.28,0001.10,0001.33,0001.02,17.6,24.2,04.7,03.1,0670.9,30.9
2021-08-05T07:10:00Z,00000200,00000000,0005.94,0003.85,0002.45,0000.48,0000.37,0000.59,0001.86,0001.84,0001.12,17.6,24.1,04.8,03.2,0670.9,30.9
2021-08-05T07:11:00Z,00000200,00000000,0006.06,0004.20,0002.34,0000.54,0000.24,0000.16,0001.29,0001.03,0000.94,17.6,24.1,04.9,03.3,0670.9,30.9
2021-08-05T07:12:00Z,00000200,00000000,0005.43,0004.00,0002.83,0000.49,0000.38,0000.51,0001.41,0001.14,0001.24,17.6,24.1,04.9,03.3,0670.9,30.9
2021-08-05T07:13:00Z,00000200,00000000,0005.02,0003.81,0002.47,0000.55,0000.32,0000.07,0001.47,0001.36,0000.76,17.6,24.1,05.0,03.3,0670.9,30.9
2021-08-05T07:14:00Z,00000200,00000000,0004.39,0003.92,0002.25,0000.35,0000.45,0000.59,0001.84,0001.46,0001.13,17.6,24.1,05.0,03.3,0670.9,30.9
2021-08-05T07:15:00Z,00000200,00000000,0005.41,0004.10,0002.49,0000.43,0000.43,0000.26,0001.28,0001.33,0001.56,17.6,24.1,05.1,03.4,0670.9,30.9
2021-08-05T07:16:00Z,00000200,00000000,0006.08,0003.97,0002.18,0000.14,0000.28,0000.22,0001.52,0001.24,0000.43,17.7,24.1,05.0,03.4,0670.9,30.9
2021-08-05T07:17:00Z,00000200,00000000,0004.96,0004.34,0002.72,0000.06,0000.51,0000.26,0001.29,0001.10,0001.02,17.7,24.1,05.1,03.4,0671.0,30.9
2021-08-05T07:18:00Z,00000200,00000000,0004.40,0003.72,0001.99,0000.61,0000.18,0000.25,0001.29,0001.30,0001.21,17.7,24.2,05.1,03.5,0671.0,30.9
2021-08-05T07:19:00Z,00000200,00000000,0005.33,0003.69,0002.52,0000.63,0000.54,0000.37,0001.20,0001.37,0000.43,17.7,24.2,05.2,03.5,0671.0,30.9
2021-08-05T07:20:00Z,00000200,00000000,0005.76,0003.70,0002.09,0000.54,0000.50,0000.41,0001.25,0001.14,0000.92,17.7,24.2,05.1,03.4,0671.0,30.9
2021-08-05T07:21:00Z,00000200,00000000,0005.32,0003.81,0002.28,0000.42,0000.47,0000.40,0001.57,0001.06,0001.21,17.7,24.1,05.1,03.5,0671.0,30.9
2021-08-05T07:22:00Z,00000200,00000000,0005.12,0003.89,0002.31,0000.22,0000.65,0000.20,0001.09,0001.06,0000.92,17.7,24.1,05.1,03.5,0671.0,30.9
2021-08-05T07:23:00Z,00000200,00000000,0005.51,0003.85,0002.48,0000.42,0000.19,0000.02,0001.57,0001.55,0001.38,17.7,24.1,05.3,03.5,0671.0,30.9
2021-08-05T07:24:00Z,00000200,00000000,0004.53,0003.53,0002.01,0000.67,0000.51,0000.10,0001.10,0001.22,0000.31,17.7,24.1,05.4,03.6,0671.1,30.9
2021-08-05T07:25:00Z,00000200,00000000,0004.71,0003.42,0002.26,0000.34,0000.34,0000.46,0001.45,0001.01,0001.01,17.7,24.1,05.3,03.6,0671.1,30.9
2021-08-05T07:26:00Z,00000200,00000000,0004.97,0003.69,0002.18,0000.13,0000.53,0000.49,0001.44,0001.34,0001.09,17.6,24.1,05.4,03.6,0671.1,30.9
2021-08-05T07:27:00Z,00000200,00000000,0004.37,0003.18,0002.40,0000.74,0000.35,0000.27,0001.20,0001.41,0000.89,17.6,24.0,05.5,03.7,0671.1,30.9
2021-08-05T07:28:00Z,00000200,00000000,0005.38,0003.45,0001.96,0000.27,0000.76,0000.23,0001.17,0000.92,0000.70,17.6,24.0,05.6,03.8,0671.1,30.9
2021-08-05T07:29:00Z,00000200,00000000,0004.57,0003.23,0001.88,0000.60,0000.24,0000.17,0001.31,0001.49,0001.33,17.6,24.0,05.8,03.9,0671.1,30.9
2021-08-05T07:30:00Z,00000200,00000000,0004.93,0003.41,0001.82,0000.30,0000.44,0000.03,0001.44,0001.06,0000.86,17.6,24.0,05.8,03.9,0671.1,30.9
2021-08-05T07:31:00Z,00000200,00000000,0004.45,0003.38,0001.76,-000.01,0000.66,0000.20,0001.36,0001.08,0000.93,17.7,24.1,05.9,04.0,0671.1,30.9
2021-08-05T07:32:00Z,00000200,00000000,0004.23,0003.24,0001.77,0000.35,0000.73,0000.24,0000.93,0000.98,0000.97,17.7,24.1,06.0,04.0,0671.1,30.9
2021-08-05T07:33:00Z,00000200,00000000,0004.91,0003.78,0002.08,0000.49,0000.41,0000.11,0001.50,0001.58,0001.05,17.7,24.1,06.0,04.0,0671.1,30.9
2021-08-05T07:34:00Z,00000200,00000000,0004.90,0003.86,0001.74,0000.20,0000.49,0000.04,0001.50,0001.02,0000.65,17.7,24.1,06.0,04.0,0671.1,30.9
2021-08-05T07:35:00Z,00000200,00000000,0004.89,0003.23,0002.19,0001.19,0000.12,0000.43,0000.79,0001.20,0000.91,17.7,24.1,06.0,04.1,0671.1,30.9
2021-08-05T07:36:00Z,00000200,00000000,0005.27,0003.74,0001.88,0000.14,0000.43,0000.28,0001.42,0000.79,0001.04,17.7,24.1,06.1,04.1,0671.1,30.9
2021-08-05T07:37:00Z,00000200,00000000,0004.83,0003.54,0001.92,-000.27,0000.82,0000.05,0000.95,0001.22,0000.64,17.7,24.1,06.1,04.1,0671.2,30.9
2021-08-05T07:38:00Z,00000200,00000000,0005.16,0003.44,0001.83,0000.13,0000.16,0000.16,0001.26,0000.97,0000.82,17.7,24.0,06.2,04.2,0671.2,30.9
2021-08-05T07:39:00Z,00000200,00000000,0004.18,0003.07,0001.61,0000.24,0000.09,0000.31,0001.21,0001.11,0000.82,17.7,24.0,06.3,04.3,0671.2,30.9
2021-08-05T07:40:00Z,00000200,00000000,0003.93,0003.06,0001.72,0000.19,0000.64,0000.12,0001.17,0000.70,0000.97,17.6,24.0,06.2,04.2,0671.2,30.9
2021-08-05T07:41:00Z,00000200,00000000,0005.05,0003.58,0001.82,0000.32,0000.47,0000.24,0000.73,0001.02,0000.60,17.6,24.0,06.3,04.2,0671.2,30.9
2021-08-05T07:42:00Z,00000200,00000000,0004.02,0002.81,0001.89,0000.62,0000.76,0000.26,0001.60,0001.72,0000.68,17.6,24.0,06.3,04.2,0671.2,30.9
2021-08-05T07:43:00Z,00000200,00000000,0004.39,0003.55,0002.04,0000.43,0000.34,0000.46,0000.81,0000.70,0001.06,17.6,24.0,06.2,04.2,0671.2,30.9
2021-08-05T07:44:00Z,00000200,00000000,0004.71,0003.56,0001.97,0000.88,0000.11,0000.23,0001.16,0000.98,0000.54,17.6,24.0,06.3,04.3,0671.2,30.9
2021-08-05T07:45:00Z,00000200,00000000,0004.78,0003.47,0001.82,0000.35,0000.53,0000.25,0001.10,0001.18,0000.98,17.6,24.0,06.3,04.2,0671.2,30.9
2021-08-05T07:46:00Z,00000200,00000000,0004.42,0003.71,0002.03,0000.54,0000.25,0000.51,0001.54,0001.13,0000.86,17.6,24.0,06.3,04.3,0671.2,30.9
2021-08-05T07:47:00Z,00000200,00000000,0004.58,0003.38,0001.80,0000.72,0000.32,0000.24,0001.34,0000.96,0001.17,17.6,23.9,06.4,04.3,0671.2,30.9
2021-08-05T07:48:00Z,00000200,00000000,0004.27,0003.66,0001.65,0000.29,0000.38,0000.22,0001.46,0001.32,0000.66,17.6,24.0,06.4,04.3,0671.2,30.9
2021-08-05T07:49:00Z,00000200,00000000,0004.43,0003.14,0002.01,0000.42,0000.14,0000.35,0001.01,0001.13,0000.79,17.6,24.0,06.5,04.4,0671.2,30.8
2021-08-05T07:50:00Z,00000200,00000000,0004.95,0003.20,0001.90,0000.80,0000.30,0000.34,0001.27,0000.99,0001.20,17.5,24.0,06.6,04.4,0671.2,30.9
2021-08-05T07:51:00Z,00000200,00000000,0004.73,0003.25,0002.21,-000.24,0000.31,0000.14,0000.89,0001.10,0000.60,17.5,23.9,06.7,04.5,0671.2,30.9
2021-08-05T07:52:00Z,00000200,00000000,0004.64,0003.45,0002.05,0000.22,0000.36,0000.20,0001.28,0000.90,0001.13,17.5,23.9,06.8,04.6,0671.2,30.9
2021-08-05T07:53:00Z,00000200,00000000,0004.73,0003.22,0001.53,0000.46,0000.57,0000.16,0001.18,0001.35,0000.64,17.5,23.9,06.9,04.7,0671.3,30.9
2021-08-05T07:54:00Z,00000200,00000000,0004.89,0003.54,0002.22,-000.05,0000.59,0000.28,0001.44,0001.46,0001.36,17.5,23.9,07.0,04.7,0671.3,30.9
2021-08-05T07:55:00Z,00000200,00000000,0003.97,0003.11,0002.28,0000.23,0000.33,0000.36,0001.13,0001.08,0000.51,17.5,23.9,07.3,04.9,0671.2,30.9
2021-08-05T07:56:00Z,00000200,00000000,0004.08,0002.94,0002.11,0000.23,0000.53,0000.04,0001.40,0001.18,0000.86,17.5,23.9,07.3,04.9,0671.2,30.9
2021-08-05T07:57:00Z,00000200,40000000,,,,,,,-000.56,-000.62,-000.54,17.5,24.0,07.8,05.2,0671.2,30.9
2021-08-05T07:58:00Z,00000200,60000000,,,,,,,0000.39,0000.47,0000.57,17.3,24.0,07.0,04.6,0670.2,30.9
2021-08-05T07:59:00Z,00000200,20000000,,,,,,,0000.25,0000.16,0000.09,17.2,24.1,06.9,04.5,0670.2,30.9
